Regional Weather Roundup
Issued by NWS State College, PA

Home | Current Version | Previous Version | Graphics & Text | Print | Product List | Glossary On
Versions: 1 2 3 4 5 6 7 8 9 10 11 12 13 14 15 16 17 18 19 20 21 22 23 24 25 26 27 28 29 30 31 32 33 34 35 36 37 38 39 40 41 42 43 44 45 46 47 48 49 50
000
ASUS41 KCTP 090810
RWRCTP

REGIONAL WEATHER ROUNDUP
NATIONAL WEATHER SERVICE STATE COLLEGE PA
300 AM EST FRI DEC 09 2016

Note: "fair" indicates few or no clouds below 12,000 feet with no
significant weather and/or obstructions to visibility.

* = STATION THAT DOES NOT REPORT PRECIPITATION /E.G. RAIN...SNOW...ETC/
    THUNDER OR FOG.

PAZ002>004-007>009-013>016-020>023-029>032-090900-
WESTERN PENNSYLVANIA

CITY           SKY/WX    TMP DP  RH WIND       PRES   REMARKS
ERIE           LGT SNOW  32  22  66 W17G26    30.17R
MEADVILLE      LGT SNOW  21  17  84 SW12      30.17R FOG     WCI   9
FRANKLIN*        N/A     21  14  73 W16       30.18R WCI   7
NEW CASTLE     FLURRIES  23  18  81 W15G24    30.24R WCI  10
BEAVER COUNTY  NOT AVBL
BUTLER*        CLOUDY    21  16  79 W13G21    30.25S WCI   9
PITTSBURGH INT FLURRIES  24  16  71 W16G23    30.26R WCI  11
PITTSBURGH     CLOUDY    22  13  68 W16G26    30.24R WCI   8
INDIANA*       CLOUDY    23  18  80 W17G25    30.22R WCI   9
LATROBE        CLOUDY    23  16  74 W16G24    30.25R WCI  10
WASHINGTON CO* CLOUDY    21  16  79 W9        30.29S WCI  11
$$

PAZ004>006-010>012-017>019-024>028-033>037-041-042-045-046-049>053-090900-
CENTRAL PENNSYLVANIA

CITY           SKY/WX    TMP DP  RH WIND       PRES   REMARKS
BRADFORD       FLURRIES  21  18  88 W12G21    30.04R WCI   9
DUBOIS         CLOUDY    21  15  78 W20G26    30.10S HAZE    WCI   6
CLEARFIELD     CLOUDY    23  17  78 W16       30.13R WCI  10
JOHNSTOWN      FLURRIES  19  15  84 W17G26    30.11R WCI   4
ALTOONA        CLOUDY    24  15  68 W12       30.16R WCI  13
STATE COLLEGE  CLOUDY    25  16  69 W15       30.13R WCI  13
WILLIAMSPORT   CLOUDY    29  17  61 W12       30.10R
SELINSGROVE    CLOUDY    29  18  63 VRB7      30.15R
FT INDIANTOWN  MOCLDY    29  15  55 W17G24    30.14R
CAPITAL CITY   CLOUDY    30  14  51 W14       30.18R
HARRISBURG     MOCLDY    31  18  58 W12       30.17R
YORK           CLOUDY    27  16  63 W8        30.18R
$$

PAZ038>040-043-044-047-048-054-055-060>062-067>071-090900-
EASTERN PENNSYLVANIA

CITY           SKY/WX    TMP DP  RH WIND       PRES   REMARKS
SCRANTON       CLOUDY    30  17  58 W10       30.03R
MOUNT POCONO   CLOUDY    23  14  68 W14G23    29.94R WCI  11
ALLENTOWN      CLEAR     30  15  53 W15       30.09R
QUAKERTOWN*    SUNNY     28  16  59 W10G16    30.09R
READING        CLOUDY    30  15  53 W13       30.13R
LANCASTER      PTCLDY    28  17  63 W15       30.15R
COATESVILLE    SUNNY     27  16  63 W17       30.13R WCI  14
POTTSTOWN      PTCLDY    29  15  56 W16G32    30.12R
BLUE BELL      CLEAR     30  18  59 CALM      30.10R
DOYLESTOWN     CLEAR     30  16  56 W9G21     30.08R
WILLOW GROVE   NOT AVBL
NORTH PHILA    PTCLDY    31  16  54 W10       30.13R
PHILADELPHIA   PTCLDY    30  15  53 W14       30.15R
$$




USA.gov is the U.S. government's official web portal to all federal, state and local government web resources and services.